Regional Weather Roundup
Issued by NWS Newport/Morehead, NC

Current Version | Previous Version | Graphics & Text | Print | Product List | Glossary Off
Versions: 1 2 3 4 5 6 7 8 9 10 11 12 13 14 15 16 17 18 19 20 21 22 23 24 25 26 27 28 29 30 31 32 33 34 35 36 37 38 39 40 41 42 43 44 45 46 47 48 49 50

000
ASUS42 KMHX 290925
RWRMHX
WEATHER ROUNDUP FOR EASTERN NORTH CAROLINA
NATIONAL WEATHER SERVICE NEWPORT/MOREHEAD CITY NC
500 AM EDT FRI MAY 29 2015

NOTE: "FAIR" INDICATES FEW OR NO CLOUDS BELOW 12,000 FEET
WITH NO SIGNIFICANT WEATHER AND/OR OBSTRUCTIONS TO VISIBILITY

NCZ015>017-031-032-045>047-102-103-291000-
NORTH COAST

CITY           SKY/WX    TMP DP  RH WIND       PRES   REMARKS
EDENTON        CLEAR     64  62  93 CALM      30.22S
ELIZABETH CITY CLEAR     65  63  93 CALM      30.22S
KITTY HAWK       N/A     66  63  90 CALM      30.21S
MANTEO         CLEAR     62  62  97 CALM      30.23S

$$

NCZ045>047-081-094-103-104-291000-
CENTRAL COAST

CITY           SKY/WX    TMP DP  RH WIND       PRES   REMARKS
FRISCO         PTCLDY    66  62  87 CALM      30.21S
SWANQUARTER      N/A     63 N/A N/A NE3       30.18S

$$

NCZ095-097-098-100-101-291000-
SOUTHERN COAST

CITY           SKY/WX    TMP DP  RH WIND       PRES   REMARKS
BEAUFORT       CLEAR     64  62  93 CALM      30.20F
CEDAR ISLAND     N/A     66 N/A N/A CALM      30.24S
JACKSONVILLE   CLEAR     62  59  90 CALM      30.20R
PINEY ISLAND   SUNNY    N/A N/A N/A CALM      30.21S
WILMINGTON     CLEAR     62  60  93 CALM      30.19S


$$

NCZ011>013-027>030-043-044-078>080-089-090>093-098-291000-
COASTAL PLAIN

CITY           SKY/WX    TMP DP  RH WIND       PRES   REMARKS
AHOSKIE        CLEAR     63  62  94 CALM      30.22S
CLINTON        CLEAR     64  64  99 CALM      30.20F
ELIZABETHTOWN  CLEAR     63  63 100 CALM      30.19S
GOLDSBORO      MOCLDY    66  64  93 CALM      30.19S
GREENVILLE     MOCLDY    68  64  88 CALM      30.22S
HAVELOCK       CLEAR     62  58  86 CALM      30.22S
KENANSVILLE    CLEAR     60  59  96 CALM      30.22S
KINSTON        PTCLDY    67  63  86 CALM      30.22S
NEW BERN       CLEAR     59  56  89 CALM      30.22S
RICHLANDS      CLEAR     57  54  88 CALM      30.21S
ROCKY MOUNT    CLOUDY    68  65  90 CALM      30.21S
WASHINGTON     CLEAR     64  62  94 CALM      30.22S
WHITEVILLE     CLEAR     61  59  94 CALM      30.18S

$$

AMZ130-135-150-152-154-156-158-170-250-252-270-ANZ085-086-088-633-658-670-291000-
MARINE OBSERVATIONS

STATION/POSITION TIME  TEMP    WIND        PRES    WAVE   SWELL
                       AIR SEA DIR/SP/G            HT/PER HT/PER
                 (UTC) (F)     (DEG/KT/KT) (MB)    (FT/S) (FT/S)
CHESAPEAKE LIGHT 0900   69     200/ 10/ 10 1024.0
64 E VA BEACH    0850   67 65   80/  4/  4 1023.3    3/ 8   3/ 8
DUCK             0900   65 56  160/  2/  2 1022.4
2 E DUCK         0811      60                N/A     3/ 8
OREGON INLET     0900   70 77  360/  3/  4 1023.3
13E OREGON INLT  0900      74                N/A     3/ 9   2/11
HATTERAS CG      0900   72 76   30/  2/  2 1022.5
DIAMOND BUOY     0750   75 77  100/  2/  4 1022.9    4/ 9   3/ 9
CAPE LOOKOUT     0900   72      40/  2/  2 1022.4
BEAUFORT LAB     0900   68 76   50/  4/  5 1021.9
27 SE WRIGHTSVLE 0900      75   50/  4/  6   N/A
5 SE WRIGHTSVLE  0808   75 77  120/  4/  6 1022.2
225 S CAPE HAT   0850   74 74   80/ 14/ 17 1020.8    5/10   3/10
41 SE CHARLESTON 0850   76 78   70/  6/  8 1020.4    4/ 8   3/ 8

$$


USA.gov is the U.S. government's official web portal to all federal, state and local government web resources and services.